GPS BIIR-2 (PRN 13) 1 24876U 97035A 21065.69322537 -.00000021 00000-0 00000-0 0 9996 2 24876 55.4660 173.9200 0047197 56.6829 303.7638 2.00562593173273 GPS BIIR-4 (PRN 20) 1 26360U 00025A 21065.96751478 -.00000014 00000-0 00000-0 0 9991 2 26360 53.7000 98.2499 0058077 166.7539 13.1574 2.00562773152594 GPS BIIR-5 (PRN 28) 1 26407U 00040A 21065.78831411 .00000007 00000-0 00000-0 0 9997 2 26407 55.7974 291.8032 0180722 282.6436 88.7811 2.00564382151273 GPS BIIR-8 (PRN 16) 1 27663U 03005A 21065.33908095 .00000006 00000-0 00000-0 0 9999 2 27663 55.8507 291.6157 0120788 36.9102 135.7454 2.00565355132628 GPS BIIR-9 (PRN 21) 1 27704U 03010A 21065.54179780 -.00000054 00000-0 00000-0 0 9999 2 27704 54.7990 42.3057 0244456 292.2199 240.2902 2.00558968131429 GPS BIIR-10 (PRN 22) 1 28129U 03058A 21065.38503785 -.00000017 00000-0 00000-0 0 9990 2 28129 53.5096 100.9391 0072168 300.3857 58.9632 2.00572889126109 GPS BIIR-11 (PRN 19) 1 28190U 04009A 21065.57271896 -.00000097 00000-0 00000-0 0 9999 2 28190 56.2179 352.4621 0088509 102.7509 33.3323 2.00569901124263 GPS BIIR-13 (PRN 02) 1 28474U 04045A 21065.75396789 -.00000053 00000-0 00000-0 0 9995 2 28474 55.1363 42.2628 0205806 271.7922 271.1742 2.00569070119751 CRE (WAAS/PRN 138) 1 28868U 05036A 21066.47023147 -.00000092 00000-0 00000+0 0 9990 2 28868 0.0149 80.0592 0002977 298.8327 208.4512 1.00271543 56822 GPS BIIRM-1 (PRN 17) 1 28874U 05038A 21065.59750816 -.00000096 00000-0 00000-0 0 9996 2 28874 56.3062 349.8684 0137057 269.7923 265.7440 2.00577303113152 IOR-W (EGNOS/PRN 126) 1 28899U 05044A 21066.14474306 -.00000005 00000-0 00000+0 0 9998 2 28899 3.1772 32.6194 0002783 329.2269 279.2214 1.00272170 56161 GPS BIIRM-2 (PRN 31) 1 29486U 06042A 21065.44885883 .00000056 00000-0 00000-0 0 9994 2 29486 54.7950 227.9111 0099196 13.1487 333.4010 2.00554413105736 GPS BIIRM-3 (PRN 12) 1 29601U 06052A 21065.90746667 .00000010 00000-0 00000+0 0 9990 2 29601 55.8439 290.5170 0082319 67.1103 293.8035 2.00550865104780 COSMOS 2425 (716) 1 29670U 06062A 21065.51310380 .00000083 00000-0 00000-0 0 9994 2 29670 64.8731 258.9258 0024722 349.8258 24.1571 2.13113621110484 GPS BIIRM-4 (PRN 15) 1 32260U 07047A 21065.22598409 -.00000027 00000-0 00000-0 0 9994 2 32260 53.2168 159.9456 0128754 55.0654 306.1552 2.00574432 98164 COSMOS 2433 (720) 1 32275U 07052A 21066.51382230 -.00000066 00000-0 00000+0 0 9994 2 32275 66.0465 20.1696 0004627 273.2418 326.7350 2.13104254104012 COSMOS 2432 (719) 1 32276U 07052B 21065.63597304 -.00000059 00000-0 00000-0 0 9990 2 32276 66.0585 20.2923 0012321 323.6067 272.4343 2.13103627103998 GPS BIIRM-5 (PRN 29) 1 32384U 07062A 21065.11874758 -.00000094 00000-0 00000-0 0 9994 2 32384 56.4106 350.5917 0013773 126.9226 286.2721 2.00563776 96822 COSMOS 2434 (721) 1 32393U 07065A 21065.63901825 .00000083 00000-0 00000-0 0 9997 2 32393 64.4914 257.4275 0004992 77.1432 99.8133 2.13103129102705 COSMOS 2436 (723) 1 32395U 07065C 21065.72814190 .00000083 00000-0 00000-0 0 9997 2 32395 64.4995 257.4775 0016086 7.4257 14.0399 2.13103024102649 GPS BIIRM-6 (PRN 07) 1 32711U 08012A 21065.63169063 .00000052 00000-0 00000-0 0 9990 2 32711 54.5461 226.9461 0146961 226.0064 132.7464 2.00571910 95093 GPS BIIRM-8 (PRN 05) 1 35752U 09043A 21065.11839965 -.00000015 00000-0 00000-0 0 9991 2 35752 54.7415 104.4347 0058084 48.9799 319.2876 2.00545254 84672 COSMOS 2456 (730) 1 36111U 09070A 21065.65018444 -.00000017 00000-0 00000-0 0 9993 2 36111 64.2588 137.1080 0004128 309.1867 48.2364 2.13099169 87367 COSMOS 2457 (733) 1 36112U 09070B 21065.84235740 -.00000018 00000-0 00000-0 0 9996 2 36112 64.2423 136.9880 0005282 171.5719 96.8423 2.13101406 87374 BEIDOU 3 (C01) 1 36287U 10001A 21065.87293407 -.00000297 00000-0 00000-0 0 9991 2 36287 1.7239 41.9447 0003127 86.6814 130.7964 1.00273837 40820 COSMOS 2459 (731) 1 36400U 10007A 21065.78059456 -.00000062 00000-0 00000-0 0 9998 2 36400 65.9439 19.1323 0026765 345.6484 268.0845 2.13105151 85713 COSMOS 2461 (735) 1 36401U 10007B 21065.77790772 -.00000062 00000-0 00000-0 0 9991 2 36401 65.9397 19.0972 0021139 0.8710 252.5827 2.13103859 85720 COSMOS 2460 (732) 1 36402U 10007C 21065.84530896 -.00000063 00000-0 00000-0 0 9990 2 36402 65.9257 19.0555 0002405 304.6063 304.3424 2.13106612 85723 GPS BIIF-1 (PRN 25) 1 36585U 10022A 21065.21623247 .00000015 00000-0 00000-0 0 9999 2 36585 55.1190 286.3928 0096826 53.5704 134.6258 2.00565122 78909 BEIDOU 5 (C06) 1 36828U 10036A 21065.72459669 -.00000181 00000-0 00000+0 0 9999 2 36828 54.1755 180.5490 0107945 234.3094 127.7435 1.00293407 38886 COSMOS 2464 (736) 1 37139U 10041C 21065.60037365 .00000082 00000-0 00000-0 0 9993 2 37139 64.0882 256.7392 0029163 14.0787 354.9112 2.13100799 81786 QZS-1 (QZSS/PRN 183) 1 37158U 10045A 21065.52998670 -.00000212 00000-0 00000-0 0 9990 2 37158 41.8620 139.9022 0747868 269.9644 83.5877 1.00294361 38402 BEIDOU 6 (C04) 1 37210U 10057A 21065.87685970 -.00000129 00000-0 00000-0 0 9993 2 37210 0.9617 54.5221 0003830 198.0418 27.9229 1.00270606 37948 BEIDOU 7 (C07) 1 37256U 10068A 21066.25419549 -.00000191 00000-0 00000+0 0 9993 2 37256 51.0360 295.2233 0081818 216.0894 224.2047 1.00288669 37463 COSMOS 2471 (701K) 1 37372U 11009A 21064.69476215 -.00000055 00000-0 00000+0 0 9996 2 37372 65.9267 19.0362 0014021 230.3470 19.3333 2.13080339 77978 BEIDOU 8 (C08) 1 37384U 11013A 21066.15761674 -.00000168 00000-0 00000+0 0 9998 2 37384 59.6408 58.9316 0053989 207.5754 74.8595 1.00281486 36338 GSAT-8 (GAGAN/PRN 127) 1 37605U 11022A 21066.14299833 .00000067 00000-0 00000+0 0 9993 2 37605 0.0249 91.4978 0006264 203.1603 336.9513 1.00271694 35906 GPS BIIF-2 (PRN 01) 1 37753U 11036A 21065.58125979 -.00000043 00000-0 00000-0 0 9994 2 37753 56.3535 46.9745 0103264 46.1054 132.9988 2.00562310 70595 BEIDOU 9 (C09) 1 37763U 11038A 21065.79195336 -.00000104 00000-0 00000-0 0 9992 2 37763 54.4649 182.9750 0078705 224.1940 137.1806 1.00286301 35310 GSAT0101 (PRN E11) 1 37846U 11060A 21064.56898827 -.00000063 00000-0 00000-0 0 9992 2 37846 56.7856 34.1199 0004353 333.9800 25.9844 1.70475102 58221 GSAT0102 (PRN E12) 1 37847U 11060B 21065.36689128 -.00000066 00000-0 00000-0 0 9997 2 37847 56.7870 34.0975 0005851 317.1121 218.7503 1.70475300 58249 COSMOS 2476 (744) 1 37867U 11064A 21065.69823823 -.00000018 00000-0 00000-0 0 9998 2 37867 64.5555 138.2786 0020764 237.6509 58.1084 2.13101914 72714 COSMOS 2477 (745) 1 37868U 11064B 21065.51159652 -.00000017 00000-0 00000-0 0 9991 2 37868 64.5642 138.3453 0018280 238.6300 92.3151 2.13101716 72663 COSMOS 2475 (743) 1 37869U 11064C 21066.44509506 -.00000019 00000-0 00000+0 0 9993 2 37869 64.5703 138.3161 0022123 258.5367 26.1630 2.13101859 72691 BEIDOU 10 (C10) 1 37948U 11073A 21065.84620883 -.00000135 00000-0 00000-0 0 9996 2 37948 51.1414 294.8697 0068801 214.3204 56.3201 1.00275635 34062 LUCH 5A (SDCM/PRN 140) 1 37951U 11074B 21065.87816824 -.00000065 00000-0 00000-0 0 9998 2 37951 3.8711 107.7956 0003828 275.1198 264.9532 1.00272118 33858 BEIDOU 11 (C05) 1 38091U 12008A 21066.14369622 .00000040 00000-0 00000+0 0 9993 2 38091 1.3356 64.4725 0008397 299.8722 271.1022 1.00270584 33148 BEIDOU 12 (C11) 1 38250U 12018A 21065.72677758 -.00000100 00000-0 00000-0 0 9995 2 38250 56.7569 9.0044 0023311 252.2250 288.1298 1.86234409 60374 BEIDOU 13 (C12) 1 38251U 12018B 21065.78089983 -.00000101 00000-0 00000-0 0 9990 2 38251 56.6786 8.3563 0014387 258.1652 2.9131 1.86234280 60372 SES-5 (EGNOS/PRN 136) 1 38652U 12036A 21065.77415723 .00000017 00000-0 00000-0 0 9994 2 38652 0.0135 89.4721 0001728 263.8771 95.0076 1.00271792 25157 BEIDOU 15 (C14) 1 38775U 12050B 21066.16511875 -.00000028 00000-0 00000+0 0 9997 2 38775 55.1602 127.4306 0014399 316.5741 39.4745 1.86232329 57759 GSAT-10 (GAGAN/PRN 128) 1 38779U 12051B 21066.43567481 -.00000183 00000-0 00000+0 0 9998 2 38779 0.0745 271.8217 0001378 354.0658 139.3044 1.00272580 30967 GPS BIIF-3 (PRN 24) 1 38833U 12053A 21064.81476520 .00000053 00000-0 00000-0 0 9990 2 38833 53.5933 222.5732 0108011 41.1173 319.6603 2.00570099 60855 GSAT0103 (PRN E19) 1 38857U 12055A 21065.78378986 -.00000025 00000-0 00000-0 0 9992 2 38857 55.0223 154.5612 0003527 256.5309 103.4532 1.70473576 52130 GSAT0104 (PRN E20) 1 38858U 12055B 21065.71823899 -.00000024 00000-0 00000-0 0 9993 2 38858 55.0235 154.5628 0002243 259.2998 100.6986 1.70473493 52140 BEIDOU 16 (C02) 1 38953U 12059A 21066.57132743 -.00000195 00000-0 00000+0 0 9997 2 38953 1.7237 84.8640 0009861 269.3352 101.0565 1.00271918 30723 LUCH 5B (SDCM/PRN 125) 1 38977U 12061A 21066.26628323 -.00000151 00000-0 00000+0 0 9998 2 38977 6.2973 65.9198 0002497 294.1947 244.6471 1.00271565 30849 COSMOS 2485 (747) 1 39155U 13019A 21066.34696300 -.00000019 00000-0 00000+0 0 9993 2 39155 64.7214 138.5840 0021467 234.0724 243.8553 2.13101715 61200 GPS BIIF-4 (PRN 27) 1 39166U 13023A 21065.17981903 -.00000093 00000-0 00000-0 0 9999 2 39166 55.9551 346.4365 0090534 32.2813 328.2861 2.00563355 57199 IRNSS-1A 1 39199U 13034A 21066.14299833 .00000072 00000-0 00000+0 0 9994 2 39199 31.4077 92.6063 0020494 190.0458 348.9780 1.00275643 28318 GPS BIIF-5 (PRN 30) 1 39533U 14008A 21065.17977216 .00000055 00000-0 00000-0 0 9990 2 39533 53.7001 228.0189 0049952 199.8886 159.8901 2.00555444 51018 ASTRA 5B (EGNOS/PRN 123) 1 39617U 14011B 21066.49717613 .00000136 00000-0 00000+0 0 9995 2 39617 0.0567 316.2727 0002811 33.3000 26.3072 1.00269243 25548 COSMOS 2492 (754) 1 39620U 14012A 21066.51497700 -.00000069 00000-0 00000+0 0 9991 2 39620 65.8157 18.7788 0015546 321.6418 320.0912 2.13103268 54157 IRNSS-1B 1 39635U 14017A 21045.12103656 .00000102 00000-0 00000-0 0 9998 2 39635 28.9100 273.2114 0018578 178.4573 151.4712 1.00277865 25242 LUCH 5V (SDCM/PRN 141) 1 39727U 14023A 21066.65341565 -.00000287 00000-0 00000+0 0 9995 2 39727 0.5266 42.3254 0003860 15.4030 77.7386 1.00274700543190 GPS BIIF-6 (PRN 06) 1 39741U 14026A 21065.95538266 -.00000044 00000-0 00000+0 0 9993 2 39741 56.3240 46.4870 0025307 297.3040 62.4406 2.00558441 49854 COSMOS 2500 (755) 1 40001U 14032A 21065.70424273 -.00000063 00000-0 00000-0 0 9998 2 40001 65.7560 18.7019 0006434 226.1357 13.5083 2.13102604 52359 GPS BIIF-7 (PRN 09) 1 40105U 14045A 21065.04404910 -.00000019 00000-0 00000-0 0 9991 2 40105 54.6133 165.5038 0016622 106.4656 253.7283 2.00577001 47415 GSAT0201 (PRN E18) 1 40128U 14050A 21065.89535137 -.00000110 00000-0 00000+0 0 9992 2 40128 50.5106 350.9103 1651087 107.9056 270.7153 1.85518936 44482 GSAT0202 (PRN E14) 1 40129U 14050B 21065.08009755 -.00000107 00000-0 00000-0 0 9993 2 40129 50.5432 349.9888 1648496 108.6906 269.8489 1.85519549 44690 IRNSS-1C 1 40269U 14061A 21065.86910789 -.00000179 00000-0 00000-0 0 9993 2 40269 2.1391 155.3487 0017556 12.1171 33.2202 1.00273122 23352 GPS BIIF-8 (PRN 03) 1 40294U 14068A 21065.42115170 -.00000014 00000-0 00000-0 0 9999 2 40294 55.4894 106.4710 0031398 44.7845 315.5331 2.00567282 46521 COSMOS 2501 (702K) 1 40315U 14075A 21066.34065012 .00000080 00000-0 00000+0 0 9993 2 40315 63.8026 257.5577 0015431 207.2130 326.6267 2.13101403 48770 GPS BIIF-9 (PRN 26) 1 40534U 15013A 21064.06272378 .00000013 00000-0 00000-0 0 9998 2 40534 54.0286 284.1174 0057082 14.1245 346.0741 2.00552429 43112 GSAT0203 (PRN E26) 1 40544U 15017A 21066.11001456 -.00000069 00000-0 00000+0 0 9999 2 40544 56.5808 34.1751 0004816 276.6887 83.2414 1.70474523 36997 GSAT0204 (PRN E22) 1 40545U 15017B 21065.30428099 -.00000066 00000-0 00000-0 0 9994 2 40545 56.5868 34.2141 0002386 264.6840 95.2749 1.70474879 36981 IRNSS-1D 1 40547U 15018A 21065.70991689 -.00000281 00000-0 00000-0 0 9990 2 40547 28.7177 272.9347 0019825 178.6532 80.4248 1.00271951 21651 BEIDOU 17 (C31) 1 40549U 15019A 21065.77654304 -.00000177 00000-0 00000-0 0 9994 2 40549 52.6577 318.1797 0036415 188.0911 33.3850 1.00288908 21741 GPS BIIF-10 (PRN 08) 1 40730U 15033A 21065.22312991 -.00000093 00000-0 00000-0 0 9992 2 40730 55.4653 345.4854 0062598 357.3482 2.6373 2.00576532 41308 BEIDOU 18 (C57) 1 40748U 15037A 21065.80860549 -.00000103 00000-0 00000-0 0 9998 2 40748 55.9446 7.5038 0005383 344.3462 205.3226 1.86233476 38209 BEIDOU 19 (C58) 1 40749U 15037B 21065.59269597 -.00000101 00000-0 00000-0 0 9999 2 40749 55.9467 7.4993 0007147 314.8618 226.5995 1.86232336 38197 GSAT0205 (PRN E24) 1 40889U 15045A 21064.95952164 .00000031 00000-0 00000-0 0 9992 2 40889 55.9518 274.8929 0005936 23.5663 336.4913 1.70474874 34124 GSAT0206 (PRN E30) 1 40890U 15045B 21064.00585634 .00000030 00000-0 00000+0 0 9992 2 40890 55.9515 274.9156 0004089 20.5431 339.5027 1.70474955 34135 BEIDOU 20 (C18) 1 40938U 15053A 21066.03187264 -.00000093 00000-0 00000+0 0 9996 2 40938 52.2215 281.2319 0046152 189.9638 160.0065 1.00259869 20023 GPS BIIF-11 (PRN 10) 1 41019U 15062A 21065.26670295 -.00000014 00000-0 00000-0 0 9996 2 41019 55.4835 106.3100 0066459 213.8200 145.8176 2.00563785 39149 GSAT-15 (GAGAN/PRN 139) 1 41028U 15065A 21066.13591311 -.00000275 00000-0 00000+0 0 9995 2 41028 0.0150 146.2207 0001268 244.3270 276.9261 1.00271624 19527 GSAT0209 (PRN E09) 1 41174U 15079A 21065.35280188 -.00000022 00000-0 00000-0 0 9993 2 41174 55.0380 154.2733 0003966 307.9588 52.0309 1.70473725 31895 GSAT0208 (PRN E08) 1 41175U 15079B 21064.39933979 -.00000013 00000-0 00000-0 0 9990 2 41175 55.0359 154.2989 0003140 308.0520 51.9493 1.70473770 32294 IRNSS-1E 1 41241U 16003A 21065.99101050 -.00000313 00000-0 00000+0 0 9998 2 41241 28.9535 91.9910 0019998 190.2199 351.3039 1.00274653 18867 GPS BIIF-12 (PRN 32) 1 41328U 16007A 21065.35794982 -.00000023 00000-0 00000-0 0 9999 2 41328 54.8431 166.0458 0048291 223.3730 136.2558 2.00566632 37188 COSMOS 2514 (751) 1 41330U 16008A 21065.73869657 -.00000064 00000-0 00000-0 0 9992 2 41330 65.5574 18.5077 0010145 227.7888 221.2353 2.13102993 39523 IRNSS-1F 1 41384U 16015A 21065.89771769 .00000141 00000-0 00000-0 0 9997 2 41384 1.9679 197.1248 0022692 184.2996 138.9512 1.00275632 18358 BEIDOU IGSO-6 (C13) 1 41434U 16021A 21066.31514668 -.00000132 00000-0 00000+0 0 9991 2 41434 57.4141 57.7112 0040464 216.6606 99.5204 1.00290064 18143 IRNSS-1G 1 41469U 16027A 21065.88130340 -.00000353 00000-0 00000-0 0 9993 2 41469 1.9614 200.4935 0005154 218.1345 192.9780 1.00270679 17869 GSAT0211 (PRN E02) 1 41549U 16030A 21065.10723804 .00000032 00000-0 00000-0 0 9997 2 41549 56.0944 274.7689 0004057 352.0769 7.9474 1.70474631 29784 GSAT0210 (PRN E01) 1 41550U 16030B 21064.81351121 .00000032 00000-0 00000-0 0 9995 2 41550 56.0940 274.7784 0002400 333.4632 26.5546 1.70474746 29773 COSMOS 2516 (753) 1 41554U 16032A 21065.79001993 .00000081 00000-0 00000-0 0 9992 2 41554 64.0268 257.7222 0011127 213.6642 167.7546 2.13106838 37132 BEIDOU-2 G7 (C03) 1 41586U 16037A 21064.78296005 -.00000368 00000-0 00000+0 0 9998 2 41586 1.4837 64.0909 0009575 8.9750 123.0525 1.00272504 17436 E 117 W B (WAAS/PRN 131) 1 41589U 16038B 21066.48936059 -.00000030 00000-0 00000+0 0 9997 2 41589 0.0090 291.6977 0000599 346.8210 306.0503 1.00272914 17377 GSAT0207 (PRN E07) 1 41859U 16069A 21062.12602269 .00000006 00000-0 00000-0 0 9994 2 41859 54.6971 154.6605 0003886 292.6734 67.3215 1.70473668 26482 GSAT0212 (PRN E03) 1 41860U 16069B 21061.97945800 .00000007 00000-0 00000-0 0 9990 2 41860 54.6937 154.6629 0002731 320.0577 39.9583 1.70473672 26715 GSAT0213 (PRN E04) 1 41861U 16069C 21064.10489157 -.00000010 00000-0 00000-0 0 9992 2 41861 54.6963 154.6080 0003496 266.4386 93.5516 1.70473695 26612 GSAT0214 (PRN E05) 1 41862U 16069D 21063.66535935 -.00000006 00000-0 00000+0 0 9993 2 41862 54.6944 154.6151 0002637 270.7341 89.2677 1.70473784 26738 SES-15 (WAAS/PRN 133) 1 42709U 17026A 21066.53165392 .00000041 00000-0 00000+0 0 9991 2 42709 0.0155 69.2133 0000507 303.0547 215.4057 1.00269223 14850 QZS-2 (QZSS/PRN 184) 1 42738U 17028A 21065.87476603 -.00000139 00000-0 00000+0 0 9990 2 42738 42.5522 270.7432 0747104 270.2296 79.4967 1.00266503 13809 QZS-3 (QZSS/PRN 189) 1 42917U 17048A 21065.87022977 -.00000365 00000-0 00000-0 0 9994 2 42917 0.0654 223.1818 0001333 139.0477 242.7917 1.00276666 12926 COSMOS 2522 (752) 1 42939U 17055A 21065.70653885 .00000082 00000-0 00000-0 0 9991 2 42939 64.2624 257.9813 0005048 249.9607 292.3970 2.13102044 26885 QZS-4 (QZSS/PRN 185) 1 42965U 17062A 21065.68848233 -.00000332 00000-0 00000-0 0 9997 2 42965 40.8300 8.1572 0749176 269.6496 273.7062 1.00284618 12473 BEIDOU-3 M1 (C19) 1 43001U 17069A 21066.37548374 -.00000028 00000-0 00000+0 0 9997 2 43001 55.3158 127.3631 0010284 285.4516 7.9359 1.86231727 22695 BEIDOU-3 M2 (C20) 1 43002U 17069B 21066.40213154 -.00000028 00000-0 00000+0 0 9997 2 43002 55.3149 127.3991 0008732 305.3303 49.5226 1.86231531 22683 GSAT0215 (PRN E21) 1 43055U 17079A 21065.91576806 .00000033 00000-0 00000+0 0 9992 2 43055 56.0689 274.5859 0001770 343.3090 16.7173 1.70473928 20110 GSAT0216 (PRN E25) 1 43056U 17079B 21065.62175294 .00000033 00000-0 00000+0 0 9997 2 43056 56.0694 274.5937 0003026 309.7825 50.2223 1.70474027 20099 GSAT0217 (PRN E27) 1 43057U 17079C 21064.66868951 .00000032 00000-0 00000-0 0 9990 2 43057 56.0681 274.6203 0003249 327.8132 32.1967 1.70473929 20096 GSAT0218 (PRN E31) 1 43058U 17079D 21065.47527536 .00000033 00000-0 00000+0 0 9992 2 43058 56.0678 274.5955 0003244 300.5146 59.4845 1.70473986 20106 BEIDOU-3 M3 (C27) 1 43107U 18003A 21066.37797427 -.00000106 00000-0 00000+0 0 9995 2 43107 55.3854 8.6132 0004738 27.1508 117.3769 1.86232566 21457 BEIDOU-3 M4 (C28) 1 43108U 18003B 21066.38658264 -.00000106 00000-0 00000+0 0 9992 2 43108 55.3800 8.6022 0003822 266.1294 289.3525 1.86232538 21456 BEIDOU-3 M5 (C21) 1 43207U 18018A 21065.46854476 -.00000027 00000-0 00000+0 0 9991 2 43207 55.2759 127.5242 0005974 324.6979 35.3248 1.86231616 20820 BEIDOU-3 M6 (C22) 1 43208U 18018B 21064.99828979 -.00000024 00000-0 00000-0 0 9996 2 43208 55.2746 127.5444 0008423 295.1710 64.8042 1.86231827 20810 BEIDOU-3 M7 (C29) 1 43245U 18029A 21066.18355127 -.00000106 00000-0 00000+0 0 9992 2 43245 55.3210 6.4151 0001672 318.9773 325.3459 1.86232696 19988 BEIDOU-3 M8 (C30) 1 43246U 18029B 21066.48696078 -.00000108 00000-0 10000-3 0 9996 2 43246 55.3178 6.4362 0005422 342.6343 191.2040 1.86232494 19982 IRNSS-1I 1 43286U 18035A 21065.56208788 .00000077 00000-0 00000-0 0 9992 2 43286 28.8715 105.0347 0020251 188.0226 128.8545 1.00273315 10739 COSMOS 2527 (756) 1 43508U 18053A 21065.76990322 -.00000018 00000-0 00000-0 0 9999 2 43508 64.8855 138.5054 0007959 231.7279 31.2518 2.13102593 21172 BEIDOU IGSO-7 (C16) 1 43539U 18057A 21065.73730127 -.00000153 00000-0 00000-0 0 9999 2 43539 55.0554 179.8763 0032634 213.8403 146.5934 1.00244786 9823 GSAT0221 (PRN E15) 1 43564U 18060A 21065.37361802 -.00000066 00000-0 00000-0 0 9994 2 43564 56.9657 33.8907 0005805 287.6534 72.2689 1.70475558 16288 GSAT0222 (PRN E33) 1 43565U 18060B 21066.18004276 -.00000069 00000-0 00000+0 0 9996 2 43565 56.9684 33.8686 0005627 294.6755 65.2502 1.70475581 16347 GSAT0219 (PRN E36) 1 43566U 18060C 21065.81396023 -.00000068 00000-0 00000+0 0 9999 2 43566 56.9685 33.8799 0005255 294.9515 64.9789 1.70469960 16312 GSAT0220 (PRN E13) 1 43567U 18060D 21065.44723439 -.00000066 00000-0 00000+0 0 9992 2 43567 56.9680 33.8904 0005332 292.0677 67.8612 1.70475376 16281 BEIDOU-3 M9 (C23) 1 43581U 18062A 21066.16033944 .00000064 00000-0 00000+0 0 9992 2 43581 54.4462 248.1072 0002142 318.0608 206.6440 1.86231866 17727 BEIDOU-3 M10 (C24) 1 43582U 18062B 21065.83759736 .00000066 00000-0 00000-0 0 9993 2 43582 54.4440 248.1081 0006344 16.8312 22.7596 1.86232190 17727 BEIDOU-3 M11 (C25) 1 43602U 18067A 21066.03488520 .00000065 00000-0 00000+0 0 9992 2 43602 54.5212 246.6752 0007389 6.5906 207.6422 1.86231644 17210 BEIDOU-3 M12 (C26) 1 43603U 18067B 21066.13427645 .00000064 00000-0 00000+0 0 9994 2 43603 54.5148 246.6407 0004522 2.2466 189.1055 1.86231567 17238 BEIDOU-3 M13 (C32) 1 43622U 18072A 21066.33825478 -.00000028 00000-0 00000+0 0 9990 2 43622 55.2390 127.0666 0006953 280.1795 78.1990 1.86231558 16747 BEIDOU-3 M14 (C33) 1 43623U 18072B 21066.10259162 -.00000028 00000-0 00000+0 0 9997 2 43623 55.2389 127.0664 0005161 302.4989 348.1111 1.86231524 16745 BEIDOU-3 M15 (C34) 1 43647U 18078A 21065.63804742 -.00000103 00000-0 10000-3 0 9995 2 43647 55.2141 6.6324 0007678 346.1292 248.2398 1.86232804 16243 BEIDOU-3 M16 (C35) 1 43648U 18078B 21065.79668189 -.00000104 00000-0 10000-3 0 9997 2 43648 55.2093 6.6345 0005476 352.7770 256.5838 1.86232332 16260 BEIDOU-3 G1 (C59) 1 43683U 18085A 21065.72922020 -.00000297 00000-0 00000-0 0 9993 2 43683 1.2332 238.9369 0002889 43.4165 284.7986 1.00267551 8725 COSMOS 2529 (757) 1 43687U 18086A 21065.58320785 .00000082 00000-0 00000-0 0 9993 2 43687 64.4745 258.1768 0007777 280.4656 122.8283 2.13102145 18190 BEIDOU-3 M17 (C36) 1 43706U 18093A 21066.19632817 .00000064 00000-0 00000+0 0 9992 2 43706 54.5252 247.9577 0007508 278.9035 134.8867 1.86231912 15624 BEIDOU-3 M18 (C37) 1 43707U 18093B 21066.25036456 .00000063 00000-0 00000+0 0 9996 2 43707 54.5265 247.9448 0007036 310.7282 230.0491 1.86232137 15623 GPS BIII-1 (PRN 04) 1 43873U 18109A 21065.60385817 -.00000025 00000-0 00000-0 0 9994 2 43873 55.0242 168.3564 0011533 198.5738 235.8625 2.00551557 16426 BEIDOU-3 IGSO-1 (C38) 1 44204U 19023A 21066.59294965 -.00000191 00000-0 00000+0 0 9994 2 44204 55.8767 58.0207 0016815 205.9022 229.2297 1.00270181 7030 BEIDOU-2 G8 1 44231U 19027A 21064.83382720 -.00000261 00000-0 00000+0 0 9998 2 44231 0.4184 317.2655 0006287 261.2845 29.9681 1.00270959 6737 COSMOS 2534 (758) 1 44299U 19030A 21066.08455299 .00000082 00000-0 00000+0 0 9997 2 44299 64.5437 258.0026 0011293 300.1529 262.6328 2.13101962 13848 BEIDOU-3 IGSO-2 (C39) 1 44337U 19035A 21066.44205846 -.00000158 00000-0 00000+0 0 9991 2 44337 55.0873 175.9135 0017315 188.4034 67.0190 1.00262578 6366 GPS BIII-2 (PRN 18) 1 44506U 19056A 21065.44935747 -.00000044 00000-0 00000-0 0 9996 2 44506 55.4185 47.7227 0012055 184.2388 34.0406 2.00562708 11385 BEIDOU-3 M23 (C45) 1 44542U 19061A 21065.52674781 .00000068 00000-0 10000-3 0 9998 2 44542 54.7509 248.0306 0008371 345.1489 23.8722 1.86231395 9873 BEIDOU-3 M24 (C46) 1 44543U 19061B 21065.64767938 .00000068 00000-0 10000-3 0 9999 2 44543 54.7480 247.9958 0005374 343.5334 17.2777 1.86231782 9882 BEIDOU-3 IGSO-3 1 44709U 19073A 21065.57908718 -.00000150 00000-0 00000-0 0 9990 2 44709 57.9985 301.2147 0018809 191.4318 346.1013 1.00256980 5116 BEIDOU-3 M21 1 44793U 19078A 21066.08234310 -.00000106 00000-0 10000-3 0 9990 2 44793 55.0608 6.6946 0007324 351.5850 135.2442 1.86232392 8743 BEIDOU-3 M22 1 44794U 19078B 21065.75109441 -.00000104 00000-0 10000-3 0 9998 2 44794 55.0369 6.7083 0005411 342.8250 192.7023 1.86232945 8739 COSMOS 2544 (759) 1 44850U 19088A 21065.83938350 -.00000018 00000-0 00000+0 0 9999 2 44850 64.8705 138.3654 0012214 263.0979 97.0336 2.13102395 9620 BEIDOU-3 M19 1 44864U 19090A 21066.33014519 -.00000028 00000-0 00000+0 0 9996 2 44864 55.1745 127.3022 0016651 263.8071 134.5499 1.86231829 8337 BEIDOU-3 M20 1 44865U 19090B 21065.57716358 -.00000027 00000-0 00000-0 0 9992 2 44865 55.1760 127.3582 0015175 278.1423 65.2986 1.86231772 8299 BEIDOU-3 G2 1 45344U 20017A 21066.50685932 -.00000156 00000-0 00000+0 0 9995 2 45344 2.5659 333.5217 0002120 49.5369 44.8064 1.00270445 3949 COSMOS 2545 (760) 1 45358U 20018A 21065.77820853 -.00000064 00000-0 00000-0 0 9991 2 45358 64.8876 19.4983 0010402 260.9855 262.3645 2.13102824 7561 BEIDOU-3 G3 1 45807U 20040A 21065.93870997 -.00000370 00000-0 00000-0 0 9997 2 45807 2.5206 298.3778 0009017 16.1420 298.8092 1.00271332 2746 GPS BIII-3 (PRN 23) 1 45854U 20041A 21064.72937842 -.00000014 00000-0 00000-0 0 9994 2 45854 55.1950 105.0114 0009326 151.3723 208.7424 2.00566933 5339